Find Starlink 31341

NORAD ID: 59155 Int'l Des: 2024-044 Owner: SPXS Country: US Constellation: starlink operational
LEOCIRCULAR

Current View

Loading 3D Globe...

About Starlink 31341

Starlink 31341 (NORAD 59155) is a starlink constellation satellite (v2 mini) launched Mar 4, 2024 by SPXS of US. It operates in LEO, CIRCULAR orbit with a mass of 730.00 kg.

About Starlink 31341

Description loading...

Upcoming Passes

Passes for default location (London). Set your location on the main map for personalized predictions.

Altitude History

Loading altitude history...

Two-Line Element Set

1 59155U 24044D 26162.85355746 -.00000764 00000-0 -18248-4 0 9995
2 59155 43.0010 298.9512 0000959 244.8429 115.2323 15.27574632127927
Epoch: Jun 11, 2026 • Age: 37 hours

Current Status

Altitude 482.2 km
Velocity 7.63 km/s
Sub-Earth Point 6.25°N, 62.03°E
Launch Date Mar 4, 2024
Age 2.2 years
Type internet

Technical Details

Classification Payload
Mass 730.00 kg
Dry Mass 700.00 kg
Total Mass 730.00 kg
Length 0.30 m
Diameter 4.10 m
Span 29.00 m
Shape Box + pan
Manufacturer SPXS
Bus Type Starlink V2M
Phase Status In Orbit
Owner/State SPXS/US

Most Searched